TimeEDT,TemperatureF,Dew PointF,Humidity,Sea Level PressureIn,VisibilityMPH,Wind Direction,Wind SpeedMPH,Gust SpeedMPH,PrecipitationIn,Events,Conditions,WindDirDegrees,DateUTC
12:56 AM,70.0,68.0,93,30.05,7.0,Variable,4.6,-,0.12,Rain-Thunderstorm,Light Thunderstorms and Rain,0,2013-05-20 04:56:00
1:33 AM,69.8,66.2,88,30.07,10.0,NW,3.5,-,0.02,Rain,Light Rain,310,2013-05-20 05:33:00
1:56 AM,68.0,66.0,93,30.06,10.0,NNE,3.5,-,0.02,,Overcast,20,2013-05-20 05:56:00
2:56 AM,68.0,66.0,93,30.04,10.0,WSW,3.5,-,N/A,,Overcast,250,2013-05-20 06:56:00
3:56 AM,68.0,66.9,96,30.04,10.0,Calm,Calm,-,N/A,,Overcast,0,2013-05-20 07:56:00
4:56 AM,69.1,66.9,93,30.04,9.0,SE,4.6,-,N/A,,Overcast,140,2013-05-20 08:56:00
5:56 AM,70.0,68.0,93,30.05,10.0,SE,3.5,-,N/A,,Overcast,140,2013-05-20 09:56:00
6:56 AM,71.1,69.1,93,30.06,8.0,SSE,4.6,-,N/A,,Overcast,150,2013-05-20 10:56:00
7:56 AM,72.0,71.1,97,30.08,9.0,SE,5.8,-,N/A,,Overcast,140,2013-05-20 11:56:00
8:56 AM,73.0,71.1,93,30.09,10.0,SSE,8.1,-,N/A,,Overcast,150,2013-05-20 12:56:00
9:56 AM,73.0,71.1,93,30.11,10.0,SSE,6.9,-,N/A,,Overcast,160,2013-05-20 13:56:00
10:56 AM,73.9,71.1,91,30.12,10.0,South,9.2,-,N/A,,Overcast,170,2013-05-20 14:56:00
11:56 AM,73.9,71.1,91,30.11,10.0,South,4.6,-,N/A,,Overcast,170,2013-05-20 15:56:00
12:56 PM,80.1,70.0,71,30.09,10.0,WSW,4.6,-,N/A,,Overcast,240,2013-05-20 16:56:00
1:56 PM,80.1,69.1,69,30.09,10.0,SSW,3.5,-,N/A,,Overcast,210,2013-05-20 17:56:00
2:56 PM,81.0,70.0,69,30.07,10.0,South,4.6,-,N/A,,Overcast,180,2013-05-20 18:56:00
3:56 PM,81.0,70.0,69,30.04,10.0,ESE,4.6,-,N/A,,Overcast,120,2013-05-20 19:56:00
4:56 PM,82.0,72.0,71,30.04,10.0,ESE,10.4,-,N/A,,Mostly Cloudy,110,2013-05-20 20:56:00
5:03 PM,80.6,71.6,74,30.03,10.0,SE,9.2,-,N/A,Thunderstorm,Thunderstorm,140,2013-05-20 21:03:00
5:56 PM,79.0,73.0,82,30.05,10.0,East,6.9,-,0.04,Rain-Thunderstorm,Light Thunderstorms and Rain,90,2013-05-20 21:56:00
6:08 PM,78.8,71.6,78,30.04,10.0,ESE,9.2,-,0.00,Rain,Light Rain,110,2013-05-20 22:08:00
6:56 PM,75.0,71.1,87,30.04,10.0,ESE,10.4,-,0.00,Rain,Light Rain,110,2013-05-20 22:56:00
7:56 PM,73.9,69.1,85,30.05,10.0,SE,6.9,-,0.00,,Mostly Cloudy,130,2013-05-20 23:56:00
8:56 PM,72.0,69.1,91,30.07,10.0,South,5.8,-,N/A,,Overcast,170,2013-05-21 00:56:00
9:56 PM,73.0,69.1,87,30.08,10.0,South,4.6,-,N/A,,Mostly Cloudy,170,2013-05-21 01:56:00
10:56 PM,72.0,70.0,93,30.08,10.0,Calm,Calm,-,N/A,,Mostly Cloudy,0,2013-05-21 02:56:00
11:56 PM,70.0,68.0,93,30.05,7.0,Calm,Calm,-,N/A,,Scattered Clouds,0,2013-05-21 03:56:00